locationName,lineName,date,time,countIn,countOut
�����w�O,��������,2022/8/1,0:00,0,0
�����w�O,��������,2022/8/1,1:00,0,0
�����w�O,��������,2022/8/1,2:00,0,0
�����w�O,��������,2022/8/1,3:00,0,0
�����w�O,��������,2022/8/1,4:00,0,0
�����w�O,��������,2022/8/1,5:00,0,0
�����w�O,��������,2022/8/1,6:00,0,0
�����w�O,��������,2022/8/1,7:00,0,0
�����w�O,��������,2022/8/1,8:00,0,0
�����w�O,��������,2022/8/1,9:00,0,0
�����w�O,��������,2022/8/1,10:00,0,0
�����w�O,��������,2022/8/1,11:00,0,0
�����w�O,��������,2022/8/1,12:00,0,0
�����w�O,��������,2022/8/1,13:00,0,0
�����w�O,��������,2022/8/1,14:00,0,0
�����w�O,��������,2022/8/1,15:00,0,0
�����w�O,��������,2022/8/1,16:00,0,0
�����w�O,��������,2022/8/1,17:00,0,0
�����w�O,��������,2022/8/1,18:00,0,0
�����w�O,��������,2022/8/1,19:00,0,0
�����w�O,��������,2022/8/1,20:00,0,0
�����w�O,��������,2022/8/1,21:00,0,0
�����w�O,��������,2022/8/1,22:00,0,0
�����w�O,��������,2022/8/1,23:00,0,0
�����w�O,��������,2022/8/2,0:00,0,0
�����w�O,��������,2022/8/2,1:00,0,0
�����w�O,��������,2022/8/2,2:00,0,0
�����w�O,��������,2022/8/2,3:00,0,0
�����w�O,��������,2022/8/2,4:00,0,0
�����w�O,��������,2022/8/2,5:00,0,0
�����w�O,��������,2022/8/2,6:00,0,0
�����w�O,��������,2022/8/2,7:00,0,0
�����w�O,��������,2022/8/2,8:00,0,0
�����w�O,��������,2022/8/2,9:00,119,149
�����w�O,��������,2022/8/2,10:00,165,182
�����w�O,��������,2022/8/2,11:00,169,156
�����w�O,��������,2022/8/2,12:00,184,187
�����w�O,��������,2022/8/2,13:00,157,183
�����w�O,��������,2022/8/2,14:00,186,228
�����w�O,��������,2022/8/2,15:00,168,159
�����w�O,��������,2022/8/2,16:00,198,207
�����w�O,��������,2022/8/2,17:00,193,226
�����w�O,��������,2022/8/2,18:00,0,0
�����w�O,��������,2022/8/2,19:00,0,0
�����w�O,��������,2022/8/2,20:00,0,0
�����w�O,��������,2022/8/2,21:00,0,0
�����w�O,��������,2022/8/2,22:00,0,0
�����w�O,��������,2022/8/2,23:00,0,0
�����w�O,��������,2022/8/3,0:00,0,0
�����w�O,��������,2022/8/3,1:00,0,0
�����w�O,��������,2022/8/3,2:00,0,0
�����w�O,��������,2022/8/3,3:00,0,0
�����w�O,��������,2022/8/3,4:00,0,0
�����w�O,��������,2022/8/3,5:00,0,0
�����w�O,��������,2022/8/3,6:00,0,0
�����w�O,��������,2022/8/3,7:00,0,0
�����w�O,��������,2022/8/3,8:00,0,0
�����w�O,��������,2022/8/3,9:00,0,0
�����w�O,��������,2022/8/3,10:00,0,0
�����w�O,��������,2022/8/3,11:00,0,0
�����w�O,��������,2022/8/3,12:00,0,0
�����w�O,��������,2022/8/3,13:00,0,0
�����w�O,��������,2022/8/3,14:00,0,0
�����w�O,��������,2022/8/3,15:00,0,0
�����w�O,��������,2022/8/3,16:00,0,0
�����w�O,��������,2022/8/3,17:00,173,101
�����w�O,��������,2022/8/3,18:00,282,223
�����w�O,��������,2022/8/3,19:00,140,150
�����w�O,��������,2022/8/3,20:00,139,139
�����w�O,��������,2022/8/3,21:00,53,70
�����w�O,��������,2022/8/3,22:00,27,45
�����w�O,��������,2022/8/3,23:00,22,23
�����w�O,��������,2022/8/4,0:00,21,13
�����w�O,��������,2022/8/4,1:00,6,10
�����w�O,��������,2022/8/4,2:00,10,13
�����w�O,��������,2022/8/4,3:00,5,2
�����w�O,��������,2022/8/4,4:00,6,3
�����w�O,��������,2022/8/4,5:00,27,22
�����w�O,��������,2022/8/4,6:00,94,60
�����w�O,��������,2022/8/4,7:00,132,135
�����w�O,��������,2022/8/4,8:00,156,249
�����w�O,��������,2022/8/4,9:00,234,221
�����w�O,��������,2022/8/4,10:00,246,272
�����w�O,��������,2022/8/4,11:00,225,214
�����w�O,��������,2022/8/4,12:00,219,211
�����w�O,��������,2022/8/4,13:00,187,206
�����w�O,��������,2022/8/4,14:00,182,204
�����w�O,��������,2022/8/4,15:00,215,213
�����w�O,��������,2022/8/4,16:00,382,259
�����w�O,��������,2022/8/4,17:00,257,240
�����w�O,��������,2022/8/4,18:00,373,351
�����w�O,��������,2022/8/4,19:00,131,139
�����w�O,��������,2022/8/4,20:00,76,102
�����w�O,��������,2022/8/4,21:00,58,61
�����w�O,��������,2022/8/4,22:00,22,40
�����w�O,��������,2022/8/4,23:00,13,32
�����w�O,��������,2022/8/5,0:00,6,8
�����w�O,��������,2022/8/5,1:00,1,3
�����w�O,��������,2022/8/5,2:00,3,5
�����w�O,��������,2022/8/5,3:00,5,7
�����w�O,��������,2022/8/5,4:00,3,4
�����w�O,��������,2022/8/5,5:00,29,16
�����w�O,��������,2022/8/5,6:00,70,57
�����w�O,��������,2022/8/5,7:00,130,138
�����w�O,��������,2022/8/5,8:00,159,267
�����w�O,��������,2022/8/5,9:00,164,238
�����w�O,��������,2022/8/5,10:00,177,224
�����w�O,��������,2022/8/5,11:00,209,182
�����w�O,��������,2022/8/5,12:00,265,248
�����w�O,��������,2022/8/5,13:00,327,262
�����w�O,��������,2022/8/5,14:00,295,287
�����w�O,��������,2022/8/5,15:00,229,208
�����w�O,��������,2022/8/5,16:00,246,192
�����w�O,��������,2022/8/5,17:00,321,277
�����w�O,��������,2022/8/5,18:00,273,225
�����w�O,��������,2022/8/5,19:00,151,149
�����w�O,��������,2022/8/5,20:00,104,127
�����w�O,��������,2022/8/5,21:00,79,85
�����w�O,��������,2022/8/5,22:00,43,80
�����w�O,��������,2022/8/5,23:00,22,41
�����w�O,��������,2022/8/6,0:00,6,29
�����w�O,��������,2022/8/6,1:00,1,5
�����w�O,��������,2022/8/6,2:00,1,1
�����w�O,��������,2022/8/6,3:00,5,3
�����w�O,��������,2022/8/6,4:00,18,11
�����w�O,��������,2022/8/6,5:00,17,20
�����w�O,��������,2022/8/6,6:00,34,25
�����w�O,��������,2022/8/6,7:00,70,45
�����w�O,��������,2022/8/6,8:00,118,134
�����w�O,��������,2022/8/6,9:00,200,211
�����w�O,��������,2022/8/6,10:00,241,305
�����w�O,��������,2022/8/6,11:00,298,267
�����w�O,��������,2022/8/6,12:00,228,259
�����w�O,��������,2022/8/6,13:00,282,234
�����w�O,��������,2022/8/6,14:00,272,264
�����w�O,��������,2022/8/6,15:00,295,238
�����w�O,��������,2022/8/6,16:00,282,269
�����w�O,��������,2022/8/6,17:00,237,217
�����w�O,��������,2022/8/6,18:00,329,234
�����w�O,��������,2022/8/6,19:00,225,191
�����w�O,��������,2022/8/6,20:00,177,221
�����w�O,��������,2022/8/6,21:00,84,124
�����w�O,��������,2022/8/6,22:00,68,116
�����w�O,��������,2022/8/6,23:00,30,29
�����w�O,��������,2022/8/7,0:00,5,17
�����w�O,��������,2022/8/7,1:00,0,8
�����w�O,��������,2022/8/7,2:00,2,3
�����w�O,��������,2022/8/7,3:00,4,3
�����w�O,��������,2022/8/7,4:00,2,5
�����w�O,��������,2022/8/7,5:00,14,10
�����w�O,��������,2022/8/7,6:00,38,28
�����w�O,��������,2022/8/7,7:00,59,36
�����w�O,��������,2022/8/7,8:00,258,212
�����w�O,��������,2022/8/7,9:00,225,199
�����w�O,��������,2022/8/7,10:00,369,232
�����w�O,��������,2022/8/7,11:00,272,253
�����w�O,��������,2022/8/7,12:00,304,298
�����w�O,��������,2022/8/7,13:00,287,289
�����w�O,��������,2022/8/7,14:00,427,373
�����w�O,��������,2022/8/7,15:00,274,367
�����w�O,��������,2022/8/7,16:00,208,202
�����w�O,��������,2022/8/7,17:00,190,251
�����w�O,��������,2022/8/7,18:00,223,226
�����w�O,��������,2022/8/7,19:00,136,154
�����w�O,��������,2022/8/7,20:00,108,124
�����w�O,��������,2022/8/7,21:00,43,62
�����w�O,��������,2022/8/7,22:00,29,42
�����w�O,��������,2022/8/7,23:00,11,24
�����w�O,��������,2022/8/8,0:00,2,8
�����w�O,��������,2022/8/8,1:00,2,6
�����w�O,��������,2022/8/8,2:00,0,2
�����w�O,��������,2022/8/8,3:00,1,4
�����w�O,��������,2022/8/8,4:00,0,1
�����w�O,��������,2022/8/8,5:00,14,11
�����w�O,��������,2022/8/8,6:00,126,104
�����w�O,��������,2022/8/8,7:00,102,132
�����w�O,��������,2022/8/8,8:00,173,222
�����w�O,��������,2022/8/8,9:00,188,196
�����w�O,��������,2022/8/8,10:00,290,285
�����w�O,��������,2022/8/8,11:00,226,248
�����w�O,��������,2022/8/8,12:00,336,321
�����w�O,��������,2022/8/8,13:00,268,255
�����w�O,��������,2022/8/8,14:00,209,210
�����w�O,��������,2022/8/8,15:00,185,204
�����w�O,��������,2022/8/8,16:00,295,291
�����w�O,��������,2022/8/8,17:00,314,223
�����w�O,��������,2022/8/8,18:00,233,237
�����w�O,��������,2022/8/8,19:00,191,202
�����w�O,��������,2022/8/8,20:00,115,96
�����w�O,��������,2022/8/8,21:00,99,110
�����w�O,��������,2022/8/8,22:00,22,42
�����w�O,��������,2022/8/8,23:00,11,19
�����w�O,��������,2022/8/9,0:00,4,6
�����w�O,��������,2022/8/9,1:00,0,5
�����w�O,��������,2022/8/9,2:00,1,0
�����w�O,��������,2022/8/9,3:00,4,3
�����w�O,��������,2022/8/9,4:00,3,3
�����w�O,��������,2022/8/9,5:00,17,13
�����w�O,��������,2022/8/9,6:00,54,38
�����w�O,��������,2022/8/9,7:00,122,107
�����w�O,��������,2022/8/9,8:00,204,260
�����w�O,��������,2022/8/9,9:00,202,209
�����w�O,��������,2022/8/9,10:00,205,219
�����w�O,��������,2022/8/9,11:00,277,278
�����w�O,��������,2022/8/9,12:00,290,273
�����w�O,��������,2022/8/9,13:00,219,231
�����w�O,��������,2022/8/9,14:00,274,294
�����w�O,��������,2022/8/9,15:00,181,203
�����w�O,��������,2022/8/9,16:00,227,211
�����w�O,��������,2022/8/9,17:00,366,327
�����w�O,��������,2022/8/9,18:00,237,230
�����w�O,��������,2022/8/9,19:00,167,173
�����w�O,��������,2022/8/9,20:00,90,96
�����w�O,��������,2022/8/9,21:00,76,83
�����w�O,��������,2022/8/9,22:00,23,48
�����w�O,��������,2022/8/9,23:00,22,33
�����w�O,��������,2022/8/10,0:00,3,5
�����w�O,��������,2022/8/10,1:00,2,7
�����w�O,��������,2022/8/10,2:00,0,2
�����w�O,��������,2022/8/10,3:00,3,4
�����w�O,��������,2022/8/10,4:00,4,3
�����w�O,��������,2022/8/10,5:00,16,12
�����w�O,��������,2022/8/10,6:00,60,47
�����w�O,��������,2022/8/10,7:00,132,127
�����w�O,��������,2022/8/10,8:00,161,175
�����w�O,��������,2022/8/10,9:00,233,224
�����w�O,��������,2022/8/10,10:00,394,410
�����w�O,��������,2022/8/10,11:00,239,237
�����w�O,��������,2022/8/10,12:00,354,342
�����w�O,��������,2022/8/10,13:00,320,300
�����w�O,��������,2022/8/10,14:00,374,374
�����w�O,��������,2022/8/10,15:00,287,302
�����w�O,��������,2022/8/10,16:00,255,244
�����w�O,��������,2022/8/10,17:00,284,287
�����w�O,��������,2022/8/10,18:00,303,257
�����w�O,��������,2022/8/10,19:00,183,218
�����w�O,��������,2022/8/10,20:00,130,138
�����w�O,��������,2022/8/10,21:00,69,97
�����w�O,��������,2022/8/10,22:00,46,81
�����w�O,��������,2022/8/10,23:00,24,32
�����w�O,��������,2022/8/11,0:00,4,14
�����w�O,��������,2022/8/11,1:00,1,4
�����w�O,��������,2022/8/11,2:00,3,6
�����w�O,��������,2022/8/11,3:00,3,7
�����w�O,��������,2022/8/11,4:00,3,3
�����w�O,��������,2022/8/11,5:00,12,19
�����w�O,��������,2022/8/11,6:00,42,44
�����w�O,��������,2022/8/11,7:00,125,96
�����w�O,��������,2022/8/11,8:00,156,196
�����w�O,��������,2022/8/11,9:00,248,215
�����w�O,��������,2022/8/11,10:00,330,328
�����w�O,��������,2022/8/11,11:00,317,316
�����w�O,��������,2022/8/11,12:00,421,367
�����w�O,��������,2022/8/11,13:00,323,306
�����w�O,��������,2022/8/11,14:00,421,407
�����w�O,��������,2022/8/11,15:00,407,403
�����w�O,��������,2022/8/11,16:00,442,393
�����w�O,��������,2022/8/11,17:00,413,383
�����w�O,��������,2022/8/11,18:00,327,351
�����w�O,��������,2022/8/11,19:00,230,222
�����w�O,��������,2022/8/11,20:00,208,223
�����w�O,��������,2022/8/11,21:00,73,98
�����w�O,��������,2022/8/11,22:00,61,80
�����w�O,��������,2022/8/11,23:00,17,34
�����w�O,��������,2022/8/12,0:00,2,9
�����w�O,��������,2022/8/12,1:00,0,3
�����w�O,��������,2022/8/12,2:00,0,3
�����w�O,��������,2022/8/12,3:00,5,3
�����w�O,��������,2022/8/12,4:00,2,0
�����w�O,��������,2022/8/12,5:00,15,21
�����w�O,��������,2022/8/12,6:00,59,52
�����w�O,��������,2022/8/12,7:00,103,97
�����w�O,��������,2022/8/12,8:00,170,190
�����w�O,��������,2022/8/12,9:00,237,230
�����w�O,��������,2022/8/12,10:00,417,477
�����w�O,��������,2022/8/12,11:00,351,302
�����w�O,��������,2022/8/12,12:00,437,425
�����w�O,��������,2022/8/12,13:00,346,332
�����w�O,��������,2022/8/12,14:00,427,423
�����w�O,��������,2022/8/12,15:00,384,403
�����w�O,��������,2022/8/12,16:00,376,337
�����w�O,��������,2022/8/12,17:00,327,278
�����w�O,��������,2022/8/12,18:00,362,345
�����w�O,��������,2022/8/12,19:00,290,253
�����w�O,��������,2022/8/12,20:00,132,148
�����w�O,��������,2022/8/12,21:00,112,160
�����w�O,��������,2022/8/12,22:00,44,78
�����w�O,��������,2022/8/12,23:00,18,28
�����w�O,��������,2022/8/13,0:00,5,22
�����w�O,��������,2022/8/13,1:00,0,5
�����w�O,��������,2022/8/13,2:00,0,0
�����w�O,��������,2022/8/13,3:00,2,5
�����w�O,��������,2022/8/13,4:00,0,1
�����w�O,��������,2022/8/13,5:00,19,15
�����w�O,��������,2022/8/13,6:00,45,42
�����w�O,��������,2022/8/13,7:00,116,95
�����w�O,��������,2022/8/13,8:00,208,201
�����w�O,��������,2022/8/13,9:00,236,222
�����w�O,��������,2022/8/13,10:00,323,298
�����w�O,��������,2022/8/13,11:00,373,317
�����w�O,��������,2022/8/13,12:00,416,373
�����w�O,��������,2022/8/13,13:00,451,376
�����w�O,��������,2022/8/13,14:00,355,422
�����w�O,��������,2022/8/13,15:00,330,323
�����w�O,��������,2022/8/13,16:00,328,289
�����w�O,��������,2022/8/13,17:00,393,372
�����w�O,��������,2022/8/13,18:00,328,286
�����w�O,��������,2022/8/13,19:00,270,246
�����w�O,��������,2022/8/13,20:00,141,159
�����w�O,��������,2022/8/13,21:00,78,122
�����w�O,��������,2022/8/13,22:00,53,96
�����w�O,��������,2022/8/13,23:00,13,51
�����w�O,��������,2022/8/14,0:00,5,24
�����w�O,��������,2022/8/14,1:00,3,14
�����w�O,��������,2022/8/14,2:00,5,8
�����w�O,��������,2022/8/14,3:00,3,8
�����w�O,��������,2022/8/14,4:00,4,4
�����w�O,��������,2022/8/14,5:00,25,20
�����w�O,��������,2022/8/14,6:00,50,38
�����w�O,��������,2022/8/14,7:00,126,101
�����w�O,��������,2022/8/14,8:00,189,159
�����w�O,��������,2022/8/14,9:00,211,191
�����w�O,��������,2022/8/14,10:00,381,394
�����w�O,��������,2022/8/14,11:00,357,351
�����w�O,��������,2022/8/14,12:00,412,346
�����w�O,��������,2022/8/14,13:00,414,373
�����w�O,��������,2022/8/14,14:00,369,431
�����w�O,��������,2022/8/14,15:00,409,395
�����w�O,��������,2022/8/14,16:00,370,338
�����w�O,��������,2022/8/14,17:00,341,308
�����w�O,��������,2022/8/14,18:00,453,278
�����w�O,��������,2022/8/14,19:00,298,265
�����w�O,��������,2022/8/14,20:00,118,127
�����w�O,��������,2022/8/14,21:00,98,166
�����w�O,��������,2022/8/14,22:00,65,147
�����w�O,��������,2022/8/14,23:00,19,34
�����w�O,��������,2022/8/15,0:00,0,16
�����w�O,��������,2022/8/15,1:00,3,6
�����w�O,��������,2022/8/15,2:00,5,5
�����w�O,��������,2022/8/15,3:00,3,12
�����w�O,��������,2022/8/15,4:00,4,2
�����w�O,��������,2022/8/15,5:00,14,13
�����w�O,��������,2022/8/15,6:00,36,28
�����w�O,��������,2022/8/15,7:00,85,103
�����w�O,��������,2022/8/15,8:00,129,173
�����w�O,��������,2022/8/15,9:00,297,336
�����w�O,��������,2022/8/15,10:00,419,330
�����w�O,��������,2022/8/15,11:00,358,331
�����w�O,��������,2022/8/15,12:00,400,349
�����w�O,��������,2022/8/15,13:00,349,334
�����w�O,��������,2022/8/15,14:00,477,429
�����w�O,��������,2022/8/15,15:00,310,354
�����w�O,��������,2022/8/15,16:00,266,284
�����w�O,��������,2022/8/15,17:00,368,300
�����w�O,��������,2022/8/15,18:00,288,238
�����w�O,��������,2022/8/15,19:00,222,189
�����w�O,��������,2022/8/15,20:00,181,178
�����w�O,��������,2022/8/15,21:00,88,103
�����w�O,��������,2022/8/15,22:00,26,53
�����w�O,��������,2022/8/15,23:00,23,28
�����w�O,��������,2022/8/16,0:00,3,9
�����w�O,��������,2022/8/16,1:00,4,3
�����w�O,��������,2022/8/16,2:00,1,2
�����w�O,��������,2022/8/16,3:00,4,7
�����w�O,��������,2022/8/16,4:00,6,4
�����w�O,��������,2022/8/16,5:00,21,23
�����w�O,��������,2022/8/16,6:00,38,29
�����w�O,��������,2022/8/16,7:00,110,108
�����w�O,��������,2022/8/16,8:00,141,174
�����w�O,��������,2022/8/16,9:00,306,321
�����w�O,��������,2022/8/16,10:00,281,296
�����w�O,��������,2022/8/16,11:00,281,274
�����w�O,��������,2022/8/16,12:00,350,296
�����w�O,��������,2022/8/16,13:00,311,318
�����w�O,��������,2022/8/16,14:00,312,324
�����w�O,��������,2022/8/16,15:00,299,336
�����w�O,��������,2022/8/16,16:00,470,395
�����w�O,��������,2022/8/16,17:00,347,355
�����w�O,��������,2022/8/16,18:00,232,197
�����w�O,��������,2022/8/16,19:00,187,171
�����w�O,��������,2022/8/16,20:00,178,244
�����w�O,��������,2022/8/16,21:00,47,83
�����w�O,��������,2022/8/16,22:00,23,45
�����w�O,��������,2022/8/16,23:00,12,32
�����w�O,��������,2022/8/17,0:00,0,7
�����w�O,��������,2022/8/17,1:00,0,0
�����w�O,��������,2022/8/17,2:00,0,0
�����w�O,��������,2022/8/17,3:00,5,5
�����w�O,��������,2022/8/17,4:00,1,0
�����w�O,��������,2022/8/17,5:00,14,14
�����w�O,��������,2022/8/17,6:00,59,44
�����w�O,��������,2022/8/17,7:00,102,98
�����w�O,��������,2022/8/17,8:00,151,161
�����w�O,��������,2022/8/17,9:00,155,163
�����w�O,��������,2022/8/17,10:00,295,289
�����w�O,��������,2022/8/17,11:00,262,223
�����w�O,��������,2022/8/17,12:00,314,298
�����w�O,��������,2022/8/17,13:00,234,216
�����w�O,��������,2022/8/17,14:00,274,286
�����w�O,��������,2022/8/17,15:00,200,221
�����w�O,��������,2022/8/17,16:00,214,216
�����w�O,��������,2022/8/17,17:00,291,228
�����w�O,��������,2022/8/17,18:00,254,249
�����w�O,��������,2022/8/17,19:00,146,166
�����w�O,��������,2022/8/17,20:00,84,87
�����w�O,��������,2022/8/17,21:00,48,82
�����w�O,��������,2022/8/17,22:00,27,36
�����w�O,��������,2022/8/17,23:00,11,25
�����w�O,��������,2022/8/18,0:00,9,13
�����w�O,��������,2022/8/18,1:00,1,1
�����w�O,��������,2022/8/18,2:00,14,15
�����w�O,��������,2022/8/18,3:00,4,3
�����w�O,��������,2022/8/18,4:00,4,1
�����w�O,��������,2022/8/18,5:00,10,6
�����w�O,��������,2022/8/18,6:00,43,33
�����w�O,��������,2022/8/18,7:00,115,119
�����w�O,��������,2022/8/18,8:00,127,149
�����w�O,��������,2022/8/18,9:00,182,161
�����w�O,��������,2022/8/18,10:00,207,213
�����w�O,��������,2022/8/18,11:00,226,244
�����w�O,��������,2022/8/18,12:00,293,301
�����w�O,��������,2022/8/18,13:00,369,363
�����w�O,��������,2022/8/18,14:00,239,269
�����w�O,��������,2022/8/18,15:00,273,238
�����w�O,��������,2022/8/18,16:00,268,274
�����w�O,��������,2022/8/18,17:00,303,268
�����w�O,��������,2022/8/18,18:00,245,228
�����w�O,��������,2022/8/18,19:00,176,179
�����w�O,��������,2022/8/18,20:00,92,97
�����w�O,��������,2022/8/18,21:00,39,50
�����w�O,��������,2022/8/18,22:00,27,51
�����w�O,��������,2022/8/18,23:00,12,29
�����w�O,��������,2022/8/19,0:00,7,8
�����w�O,��������,2022/8/19,1:00,6,4
�����w�O,��������,2022/8/19,2:00,2,3
�����w�O,��������,2022/8/19,3:00,8,2
�����w�O,��������,2022/8/19,4:00,8,0
�����w�O,��������,2022/8/19,5:00,13,11
�����w�O,��������,2022/8/19,6:00,86,60
�����w�O,��������,2022/8/19,7:00,128,120
�����w�O,��������,2022/8/19,8:00,139,192
�����w�O,��������,2022/8/19,9:00,188,209
�����w�O,��������,2022/8/19,10:00,268,293
�����w�O,��������,2022/8/19,11:00,243,296
�����w�O,��������,2022/8/19,12:00,299,272
�����w�O,��������,2022/8/19,13:00,266,264
�����w�O,��������,2022/8/19,14:00,272,288
�����w�O,��������,2022/8/19,15:00,265,236
�����w�O,��������,2022/8/19,16:00,304,275
�����w�O,��������,2022/8/19,17:00,322,307
�����w�O,��������,2022/8/19,18:00,233,201
�����w�O,��������,2022/8/19,19:00,197,175
�����w�O,��������,2022/8/19,20:00,120,120
�����w�O,��������,2022/8/19,21:00,95,106
�����w�O,��������,2022/8/19,22:00,35,54
�����w�O,��������,2022/8/19,23:00,16,23
�����w�O,��������,2022/8/20,0:00,6,20
�����w�O,��������,2022/8/20,1:00,3,3
�����w�O,��������,2022/8/20,2:00,5,5
�����w�O,��������,2022/8/20,3:00,9,4
�����w�O,��������,2022/8/20,4:00,5,1
�����w�O,��������,2022/8/20,5:00,17,19
�����w�O,��������,2022/8/20,6:00,55,30
�����w�O,��������,2022/8/20,7:00,92,68
�����w�O,��������,2022/8/20,8:00,113,92
�����w�O,��������,2022/8/20,9:00,188,195
�����w�O,��������,2022/8/20,10:00,294,266
�����w�O,��������,2022/8/20,11:00,245,282
�����w�O,��������,2022/8/20,12:00,265,279
�����w�O,��������,2022/8/20,13:00,238,255
�����w�O,��������,2022/8/20,14:00,287,260
�����w�O,��������,2022/8/20,15:00,308,346
�����w�O,��������,2022/8/20,16:00,228,173
�����w�O,��������,2022/8/20,17:00,364,307
�����w�O,��������,2022/8/20,18:00,237,203
�����w�O,��������,2022/8/20,19:00,167,163
�����w�O,��������,2022/8/20,20:00,122,115
�����w�O,��������,2022/8/20,21:00,48,73
�����w�O,��������,2022/8/20,22:00,41,66
�����w�O,��������,2022/8/20,23:00,13,33
�����w�O,��������,2022/8/21,0:00,1,7
�����w�O,��������,2022/8/21,1:00,2,5
�����w�O,��������,2022/8/21,2:00,2,3
�����w�O,��������,2022/8/21,3:00,4,5
�����w�O,��������,2022/8/21,4:00,2,2
�����w�O,��������,2022/8/21,5:00,43,20
�����w�O,��������,2022/8/21,6:00,52,34
�����w�O,��������,2022/8/21,7:00,76,48
�����w�O,��������,2022/8/21,8:00,152,130
�����w�O,��������,2022/8/21,9:00,218,193
�����w�O,��������,2022/8/21,10:00,210,227
�����w�O,��������,2022/8/21,11:00,253,260
�����w�O,��������,2022/8/21,12:00,411,350
�����w�O,��������,2022/8/21,13:00,264,253
�����w�O,��������,2022/8/21,14:00,312,259
�����w�O,��������,2022/8/21,15:00,245,323
�����w�O,��������,2022/8/21,16:00,269,244
�����w�O,��������,2022/8/21,17:00,268,284
�����w�O,��������,2022/8/21,18:00,163,168
�����w�O,��������,2022/8/21,19:00,156,159
�����w�O,��������,2022/8/21,20:00,82,104
�����w�O,��������,2022/8/21,21:00,74,92
�����w�O,��������,2022/8/21,22:00,26,35
�����w�O,��������,2022/8/21,23:00,16,20
�����w�O,��������,2022/8/22,0:00,2,1
�����w�O,��������,2022/8/22,1:00,2,3
�����w�O,��������,2022/8/22,2:00,2,2
�����w�O,��������,2022/8/22,3:00,4,3
�����w�O,��������,2022/8/22,4:00,2,2
�����w�O,��������,2022/8/22,5:00,14,14
�����w�O,��������,2022/8/22,6:00,66,49
�����w�O,��������,2022/8/22,7:00,122,126
�����w�O,��������,2022/8/22,8:00,144,161
�����w�O,��������,2022/8/22,9:00,163,208
�����w�O,��������,2022/8/22,10:00,186,232
�����w�O,��������,2022/8/22,11:00,188,244
�����w�O,��������,2022/8/22,12:00,259,263
�����w�O,��������,2022/8/22,13:00,218,218
�����w�O,��������,2022/8/22,14:00,210,200
�����w�O,��������,2022/8/22,15:00,163,212
�����w�O,��������,2022/8/22,16:00,227,237
�����w�O,��������,2022/8/22,17:00,277,259
�����w�O,��������,2022/8/22,18:00,269,258
�����w�O,��������,2022/8/22,19:00,181,182
�����w�O,��������,2022/8/22,20:00,84,78
�����w�O,��������,2022/8/22,21:00,47,57
�����w�O,��������,2022/8/22,22:00,30,45
�����w�O,��������,2022/8/22,23:00,10,22
�����w�O,��������,2022/8/23,0:00,2,3
�����w�O,��������,2022/8/23,1:00,2,2
�����w�O,��������,2022/8/23,2:00,0,1
�����w�O,��������,2022/8/23,3:00,2,3
�����w�O,��������,2022/8/23,4:00,4,2
�����w�O,��������,2022/8/23,5:00,12,13
�����w�O,��������,2022/8/23,6:00,63,39
�����w�O,��������,2022/8/23,7:00,170,124
�����w�O,��������,2022/8/23,8:00,189,191
�����w�O,��������,2022/8/23,9:00,141,178
�����w�O,��������,2022/8/23,10:00,314,317
�����w�O,��������,2022/8/23,11:00,203,234
�����w�O,��������,2022/8/23,12:00,219,226
�����w�O,��������,2022/8/23,13:00,170,204
�����w�O,��������,2022/8/23,14:00,217,244
�����w�O,��������,2022/8/23,15:00,309,288
�����w�O,��������,2022/8/23,16:00,312,277
�����w�O,��������,2022/8/23,17:00,276,264
�����w�O,��������,2022/8/23,18:00,273,207
�����w�O,��������,2022/8/23,19:00,159,160
�����w�O,��������,2022/8/23,20:00,91,75
�����w�O,��������,2022/8/23,21:00,44,80
�����w�O,��������,2022/8/23,22:00,51,58
�����w�O,��������,2022/8/23,23:00,14,15
�����w�O,��������,2022/8/24,0:00,1,17
�����w�O,��������,2022/8/24,1:00,2,6
�����w�O,��������,2022/8/24,2:00,0,2
�����w�O,��������,2022/8/24,3:00,5,10
�����w�O,��������,2022/8/24,4:00,1,3
�����w�O,��������,2022/8/24,5:00,17,11
�����w�O,��������,2022/8/24,6:00,69,50
�����w�O,��������,2022/8/24,7:00,143,130
�����w�O,��������,2022/8/24,8:00,148,206
�����w�O,��������,2022/8/24,9:00,169,143
�����w�O,��������,2022/8/24,10:00,162,163
�����w�O,��������,2022/8/24,11:00,219,209
�����w�O,��������,2022/8/24,12:00,246,296
�����w�O,��������,2022/8/24,13:00,202,185
�����w�O,��������,2022/8/24,14:00,228,233
�����w�O,��������,2022/8/24,15:00,323,278
�����w�O,��������,2022/8/24,16:00,246,252
�����w�O,��������,2022/8/24,17:00,302,238
�����w�O,��������,2022/8/24,18:00,255,220
�����w�O,��������,2022/8/24,19:00,135,147
�����w�O,��������,2022/8/24,20:00,88,100
�����w�O,��������,2022/8/24,21:00,48,67
�����w�O,��������,2022/8/24,22:00,41,57
�����w�O,��������,2022/8/24,23:00,8,18
�����w�O,��������,2022/8/25,0:00,4,5
�����w�O,��������,2022/8/25,1:00,3,4
�����w�O,��������,2022/8/25,2:00,5,4
�����w�O,��������,2022/8/25,3:00,7,6
�����w�O,��������,2022/8/25,4:00,4,1
�����w�O,��������,2022/8/25,5:00,7,15
�����w�O,��������,2022/8/25,6:00,59,31
�����w�O,��������,2022/8/25,7:00,138,123
�����w�O,��������,2022/8/25,8:00,94,158
�����w�O,��������,2022/8/25,9:00,188,201
�����w�O,��������,2022/8/25,10:00,237,276
�����w�O,��������,2022/8/25,11:00,188,196